カタログに戻る

STARLINK-6329

運用中通信VLEO
NORAD 56525·PAYLOAD·🇺🇸 United States

打ち上げ May 14, 2023 から Cape Canaveral Space Force Station

Loading…

次のパス (今後24時間)

TLE

最新Source: CelesTrak SupGP

元期: Sep 15, 2026, 02:40 UTC

1 56525C 23065Y   26258.11159722 -.00023665  00000+0 -85728-3 0  2584
2 56525  43.0017 233.7168 0001729 272.0291 322.0824 15.27583862    11

AllMySatでSTARLINK-6329をリアルタイム追跡

Download on the App Store